owner,sensor,date,latitude,longitude,sea_surface_height_above_sea_level,qcFlag 
TCOON,ioos:station:TCOON:009:1,2016-05-01T00:18:00Z,27.8398,-97.0727,2.104,1111122 
TCOON,ioos:station:TCOON:009:1,2016-05-01T01:18:00Z,27.8398,-97.0727,2.068,1111122 
TCOON,ioos:station:TCOON:009:1,2016-05-01T02:18:00Z,27.8398,-97.0727,2.048,1111122 
TCOON,ioos:station:TCOON:009:1,2016-05-01T03:18:00Z,27.8398,-97.0727,2.043,1111122 
TCOON,ioos:station:TCOON:009:1,2016-05-01T04:18:00Z,27.8398,-97.0727,2.009,1111122 
TCOON,ioos:station:TCOON:009:1,2016-05-01T05:18:00Z,27.8398,-97.0727,1.96,1111122 
TCOON,ioos:station:TCOON:009:1,2016-05-01T06:18:00Z,27.8398,-97.0727,1.914,1111122 
TCOON,ioos:station:TCOON:009:1,2016-05-01T07:18:00Z,27.8398,-97.0727,1.909,1111122 
TCOON,ioos:station:TCOON:009:1,2016-05-01T08:18:00Z,27.8398,-97.0727,1.888,1111122 
TCOON,ioos:station:TCOON:009:1,2016-05-01T09:18:00Z,27.8398,-97.0727,1.885,1111122 
TCOON,ioos:station:TCOON:009:1,2016-05-01T10:18:00Z,27.8398,-97.0727,1.88,1111122 
TCOON,ioos:station:TCOON:009:1,2016-05-01T11:18:00Z,27.8398,-97.0727,1.909,1111122 
TCOON,ioos:station:TCOON:009:1,2016-05-01T12:18:00Z,27.8398,-97.0727,1.913,1111122 
TCOON,ioos:station:TCOON:009:1,2016-05-01T13:18:00Z,27.8398,-97.0727,1.97,1111122 
TCOON,ioos:station:TCOON:009:1,2016-05-01T14:18:00Z,27.8398,-97.0727,2.035,1111122 
TCOON,ioos:station:TCOON:009:1,2016-05-01T15:18:00Z,27.8398,-97.0727,2.041,1111122 
TCOON,ioos:station:TCOON:009:1,2016-05-01T16:18:00Z,27.8398,-97.0727,2.069,1111122 
TCOON,ioos:station:TCOON:009:1,2016-05-01T17:18:00Z,27.8398,-97.0727,2.078,1111122 
TCOON,ioos:station:TCOON:009:1,2016-05-01T18:18:00Z,27.8398,-97.0727,2.061,1111122 
TCOON,ioos:station:TCOON:009:1,2016-05-01T19:18:00Z,27.8398,-97.0727,2.074,1111122 
TCOON,ioos:station:TCOON:009:1,2016-05-01T20:18:00Z,27.8398,-97.0727,2.068,1111122 
TCOON,ioos:station:TCOON:009:1,2016-05-01T21:18:00Z,27.8398,-97.0727,2.069,1111122 
TCOON,ioos:station:TCOON:009:1,2016-05-01T22:18:00Z,27.8398,-97.0727,2.079,1111122 
TCOON,ioos:station:TCOON:009:1,2016-05-01T23:18:00Z,27.8398,-97.0727,2.066,1111122 
TCOON,ioos:station:TCOON:009:1,2016-05-02T00:18:00Z,27.8398,-97.0727,2.077,1111122 
TCOON,ioos:station:TCOON:009:1,2016-05-02T01:18:00Z,27.8398,-97.0727,2.103,1111122 
TCOON,ioos:station:TCOON:009:1,2016-05-02T02:18:00Z,27.8398,-97.0727,2.088,1111122 
TCOON,ioos:station:TCOON:009:1,2016-05-02T03:18:00Z,27.8398,-97.0727,2.094,1111122 
TCOON,ioos:station:TCOON:009:1,2016-05-02T04:18:00Z,27.8398,-97.0727,2.121,1111122 
TCOON,ioos:station:TCOON:009:1,2016-05-02T05:18:00Z,27.8398,-97.0727,2.144,1111122 
TCOON,ioos:station:TCOON:009:1,2016-05-02T06:18:00Z,27.8398,-97.0727,2.076,1111122 
TCOON,ioos:station:TCOON:009:1,2016-05-02T07:18:00Z,27.8398,-97.0727,2.082,1111122 
TCOON,ioos:station:TCOON:009:1,2016-05-02T08:18:00Z,27.8398,-97.0727,2.086,1111122 
TCOON,ioos:station:TCOON:009:1,2016-05-02T09:18:00Z,27.8398,-97.0727,2.072,1111122 
TCOON,ioos:station:TCOON:009:1,2016-05-02T10:18:00Z,27.8398,-97.0727,2.036,1111122 
TCOON,ioos:station:TCOON:009:1,2016-05-02T11:18:00Z,27.8398,-97.0727,2.066,1111122 
TCOON,ioos:station:TCOON:009:1,2016-05-02T12:18:00Z,27.8398,-97.0727,2.037,1111122 
TCOON,ioos:station:TCOON:009:1,2016-05-02T13:18:00Z,27.8398,-97.0727,2.047,1111122 
TCOON,ioos:station:TCOON:009:1,2016-05-02T14:18:00Z,27.8398,-97.0727,2.065,1111122 
TCOON,ioos:station:TCOON:009:1,2016-05-02T15:18:00Z,27.8398,-97.0727,2.135,1111122 
TCOON,ioos:station:TCOON:009:1,2016-05-02T16:18:00Z,27.8398,-97.0727,2.175,1111122 
TCOON,ioos:station:TCOON:009:1,2016-05-02T17:18:00Z,27.8398,-97.0727,2.173,1111122 
TCOON,ioos:station:TCOON:009:1,2016-05-02T18:18:00Z,27.8398,-97.0727,2.157,1111122 
TCOON,ioos:station:TCOON:009:1,2016-05-02T19:18:00Z,27.8398,-97.0727,2.138,1111122 
TCOON,ioos:station:TCOON:009:1,2016-05-02T20:18:00Z,27.8398,-97.0727,2.168,1111122 
TCOON,ioos:station:TCOON:009:1,2016-05-02T21:18:00Z,27.8398,-97.0727,2.165,1111122 
TCOON,ioos:station:TCOON:009:1,2016-05-02T22:18:00Z,27.8398,-97.0727,2.158,1111122 
TCOON,ioos:station:TCOON:009:1,2016-05-02T23:18:00Z,27.8398,-97.0727,2.134,1111122 
TCOON,ioos:station:TCOON:009:1,2016-05-03T00:18:00Z,27.8398,-97.0727,2.104,1111122 
TCOON,ioos:station:TCOON:009:1,2016-05-03T01:18:00Z,27.8398,-97.0727,2.104,1111122 
TCOON,ioos:station:TCOON:009:1,2016-05-03T02:18:00Z,27.8398,-97.0727,2.147,1111122 
TCOON,ioos:station:TCOON:009:1,2016-05-03T03:18:00Z,27.8398,-97.0727,2.147,1111122 
TCOON,ioos:station:TCOON:009:1,2016-05-03T04:18:00Z,27.8398,-97.0727,2.175,1111122 
TCOON,ioos:station:TCOON:009:1,2016-05-03T05:18:00Z,27.8398,-97.0727,2.18,1111122 
TCOON,ioos:station:TCOON:009:1,2016-05-03T06:18:00Z,27.8398,-97.0727,2.18,1111122 
TCOON,ioos:station:TCOON:009:1,2016-05-03T07:18:00Z,27.8398,-97.0727,2.154,1111122 
TCOON,ioos:station:TCOON:009:1,2016-05-03T08:18:00Z,27.8398,-97.0727,2.143,1111122 
TCOON,ioos:station:TCOON:009:1,2016-05-03T09:18:00Z,27.8398,-97.0727,2.11,1111122 
TCOON,ioos:station:TCOON:009:1,2016-05-03T10:18:00Z,27.8398,-97.0727,2.086,1111122 
TCOON,ioos:station:TCOON:009:1,2016-05-03T11:18:00Z,27.8398,-97.0727,2.072,1111122 
TCOON,ioos:station:TCOON:009:1,2016-05-03T12:18:00Z,27.8398,-97.0727,2.051,1111122 
TCOON,ioos:station:TCOON:009:1,2016-05-03T13:18:00Z,27.8398,-97.0727,2.029,1111122 
TCOON,ioos:station:TCOON:009:1,2016-05-03T14:18:00Z,27.8398,-97.0727,2.045,1111122 
TCOON,ioos:station:TCOON:009:1,2016-05-03T15:18:00Z,27.8398,-97.0727,2.071,1111122 
TCOON,ioos:station:TCOON:009:1,2016-05-03T16:18:00Z,27.8398,-97.0727,2.092,1111122 
TCOON,ioos:station:TCOON:009:1,2016-05-03T17:18:00Z,27.8398,-97.0727,2.139,1111122 
TCOON,ioos:station:TCOON:009:1,2016-05-03T18:24:00Z,27.8398,-97.0727,2.125,1111122 
TCOON,ioos:station:TCOON:009:1,2016-05-03T19:18:00Z,27.8398,-97.0727,2.084,1111122 
TCOON,ioos:station:TCOON:009:1,2016-05-03T20:18:00Z,27.8398,-97.0727,2.072,1111122 
TCOON,ioos:station:TCOON:009:1,2016-05-03T21:18:00Z,27.8398,-97.0727,2.044,1111122 
TCOON,ioos:station:TCOON:009:1,2016-05-03T22:18:00Z,27.8398,-97.0727,2.048,1111122 
TCOON,ioos:station:TCOON:009:1,2016-05-03T23:18:00Z,27.8398,-97.0727,1.998,1111122 
TCOON,ioos:station:TCOON:009:1,2016-05-04T00:18:00Z,27.8398,-97.0727,1.957,1111122 
TCOON,ioos:station:TCOON:009:1,2016-05-04T01:18:00Z,27.8398,-97.0727,1.958,1111122 
TCOON,ioos:station:TCOON:009:1,2016-05-04T02:18:00Z,27.8398,-97.0727,1.981,1111122 
TCOON,ioos:station:TCOON:009:1,2016-05-04T03:18:00Z,27.8398,-97.0727,2.012,1111122 
TCOON,ioos:station:TCOON:009:1,2016-05-04T04:18:00Z,27.8398,-97.0727,2.036,1111122 
TCOON,ioos:station:TCOON:009:1,2016-05-04T05:18:00Z,27.8398,-97.0727,2.087,1111122 
TCOON,ioos:station:TCOON:009:1,2016-05-04T06:18:00Z,27.8398,-97.0727,2.075,1111122 
TCOON,ioos:station:TCOON:009:1,2016-05-04T07:18:00Z,27.8398,-97.0727,2.092,1111122 
TCOON,ioos:station:TCOON:009:1,2016-05-04T08:18:00Z,27.8398,-97.0727,2.076,1111122 
TCOON,ioos:station:TCOON:009:1,2016-05-04T09:18:00Z,27.8398,-97.0727,2.051,1111122 
TCOON,ioos:station:TCOON:009:1,2016-05-04T10:18:00Z,27.8398,-97.0727,2.035,1111122 
TCOON,ioos:station:TCOON:009:1,2016-05-04T11:18:00Z,27.8398,-97.0727,2.024,1111122 
TCOON,ioos:station:TCOON:009:1,2016-05-04T12:18:00Z,27.8398,-97.0727,2.004,1111122 
TCOON,ioos:station:TCOON:009:1,2016-05-04T13:18:00Z,27.8398,-97.0727,1.979,1111122 
TCOON,ioos:station:TCOON:009:1,2016-05-04T14:18:00Z,27.8398,-97.0727,1.978,1111122 
TCOON,ioos:station:TCOON:009:1,2016-05-04T15:18:00Z,27.8398,-97.0727,1.975,1111122 
TCOON,ioos:station:TCOON:009:1,2016-05-04T16:18:00Z,27.8398,-97.0727,2.0,1111122 
TCOON,ioos:station:TCOON:009:1,2016-05-04T17:18:00Z,27.8398,-97.0727,2.024,1111122 
TCOON,ioos:station:TCOON:009:1,2016-05-04T18:18:00Z,27.8398,-97.0727,2.043,1111122 
TCOON,ioos:station:TCOON:009:1,2016-05-04T19:18:00Z,27.8398,-97.0727,2.04,1111122 
TCOON,ioos:station:TCOON:009:1,2016-05-04T20:18:00Z,27.8398,-97.0727,2.007,1111122 
TCOON,ioos:station:TCOON:009:1,2016-05-04T21:18:00Z,27.8398,-97.0727,1.978,1111122 
TCOON,ioos:station:TCOON:009:1,2016-05-04T22:18:00Z,27.8398,-97.0727,1.935,1111122 
TCOON,ioos:station:TCOON:009:1,2016-05-04T23:18:00Z,27.8398,-97.0727,1.883,1111122 
TCOON,ioos:station:TCOON:009:1,2016-05-05T00:18:00Z,27.8398,-97.0727,1.872,1111122 
TCOON,ioos:station:TCOON:009:1,2016-05-05T01:18:00Z,27.8398,-97.0727,1.838,1111122 
TCOON,ioos:station:TCOON:009:1,2016-05-05T02:18:00Z,27.8398,-97.0727,1.82,1111122 
TCOON,ioos:station:TCOON:009:1,2016-05-05T03:18:00Z,27.8398,-97.0727,1.839,1111122 
TCOON,ioos:station:TCOON:009:1,2016-05-05T04:18:00Z,27.8398,-97.0727,1.904,1111122 
TCOON,ioos:station:TCOON:009:1,2016-05-05T05:18:00Z,27.8398,-97.0727,1.967,1111122 
TCOON,ioos:station:TCOON:009:1,2016-05-05T06:24:00Z,27.8398,-97.0727,2.018,1111122 
TCOON,ioos:station:TCOON:009:1,2016-05-05T07:18:00Z,27.8398,-97.0727,2.036,1111122 
TCOON,ioos:station:TCOON:009:1,2016-05-05T08:18:00Z,27.8398,-97.0727,1.996,1111122 
TCOON,ioos:station:TCOON:009:1,2016-05-05T09:18:00Z,27.8398,-97.0727,1.992,1111122 
TCOON,ioos:station:TCOON:009:1,2016-05-05T10:18:00Z,27.8398,-97.0727,1.988,1111122 
TCOON,ioos:station:TCOON:009:1,2016-05-05T11:24:00Z,27.8398,-97.0727,1.981,1111122 
TCOON,ioos:station:TCOON:009:1,2016-05-05T12:18:00Z,27.8398,-97.0727,1.943,1111122 
TCOON,ioos:station:TCOON:009:1,2016-05-05T13:18:00Z,27.8398,-97.0727,1.901,1111122 
TCOON,ioos:station:TCOON:009:1,2016-05-05T14:18:00Z,27.8398,-97.0727,1.88,1111122 
TCOON,ioos:station:TCOON:009:1,2016-05-05T15:18:00Z,27.8398,-97.0727,1.884,1111122 
TCOON,ioos:station:TCOON:009:1,2016-05-05T16:18:00Z,27.8398,-97.0727,1.878,1111122 
TCOON,ioos:station:TCOON:009:1,2016-05-05T17:18:00Z,27.8398,-97.0727,1.881,1111122 
TCOON,ioos:station:TCOON:009:1,2016-05-05T18:18:00Z,27.8398,-97.0727,1.894,1111122 
TCOON,ioos:station:TCOON:009:1,2016-05-05T19:18:00Z,27.8398,-97.0727,1.897,1111122 
TCOON,ioos:station:TCOON:009:1,2016-05-05T20:18:00Z,27.8398,-97.0727,1.854,1111122 
TCOON,ioos:station:TCOON:009:1,2016-05-05T21:18:00Z,27.8398,-97.0727,1.805,1111122 
TCOON,ioos:station:TCOON:009:1,2016-05-05T22:18:00Z,27.8398,-97.0727,1.747,1111122 
TCOON,ioos:station:TCOON:009:1,2016-05-05T23:18:00Z,27.8398,-97.0727,1.69,1111122 
TCOON,ioos:station:TCOON:009:1,2016-05-06T00:18:00Z,27.8398,-97.0727,1.62,1111122 
TCOON,ioos:station:TCOON:009:1,2016-05-06T01:18:00Z,27.8398,-97.0727,1.609,1111122 
TCOON,ioos:station:TCOON:009:1,2016-05-06T02:18:00Z,27.8398,-97.0727,1.611,1111122 
TCOON,ioos:station:TCOON:009:1,2016-05-06T03:18:00Z,27.8398,-97.0727,1.631,1111122 
TCOON,ioos:station:TCOON:009:1,2016-05-06T04:18:00Z,27.8398,-97.0727,1.678,1111122 
TCOON,ioos:station:TCOON:009:1,2016-05-06T05:18:00Z,27.8398,-97.0727,1.768,1111122 
TCOON,ioos:station:TCOON:009:1,2016-05-06T06:18:00Z,27.8398,-97.0727,1.842,1111122 
TCOON,ioos:station:TCOON:009:1,2016-05-06T07:18:00Z,27.8398,-97.0727,1.904,1111122 
TCOON,ioos:station:TCOON:009:1,2016-05-06T08:18:00Z,27.8398,-97.0727,1.919,1111122 
TCOON,ioos:station:TCOON:009:1,2016-05-06T09:18:00Z,27.8398,-97.0727,1.895,1111122 
TCOON,ioos:station:TCOON:009:1,2016-05-06T10:18:00Z,27.8398,-97.0727,1.913,1111122 
TCOON,ioos:station:TCOON:009:1,2016-05-06T11:18:00Z,27.8398,-97.0727,1.91,1111122 
TCOON,ioos:station:TCOON:009:1,2016-05-06T12:18:00Z,27.8398,-97.0727,1.906,1111122 
TCOON,ioos:station:TCOON:009:1,2016-05-06T13:18:00Z,27.8398,-97.0727,1.939,1111122 
TCOON,ioos:station:TCOON:009:1,2016-05-06T14:18:00Z,27.8398,-97.0727,1.922,1111122 
TCOON,ioos:station:TCOON:009:1,2016-05-06T15:18:00Z,27.8398,-97.0727,1.9,1111122 
TCOON,ioos:station:TCOON:009:1,2016-05-06T16:18:00Z,27.8398,-97.0727,1.891,1111122 
TCOON,ioos:station:TCOON:009:1,2016-05-06T17:18:00Z,27.8398,-97.0727,1.909,1111122 
TCOON,ioos:station:TCOON:009:1,2016-05-06T18:18:00Z,27.8398,-97.0727,1.919,1111122 
TCOON,ioos:station:TCOON:009:1,2016-05-06T19:18:00Z,27.8398,-97.0727,1.899,1111122 
TCOON,ioos:station:TCOON:009:1,2016-05-06T20:18:00Z,27.8398,-97.0727,1.893,1111122 
TCOON,ioos:station:TCOON:009:1,2016-05-06T21:18:00Z,27.8398,-97.0727,1.861,1111122 
TCOON,ioos:station:TCOON:009:1,2016-05-06T22:18:00Z,27.8398,-97.0727,1.784,1111122 
TCOON,ioos:station:TCOON:009:1,2016-05-06T23:18:00Z,27.8398,-97.0727,1.704,1111122 
TCOON,ioos:station:TCOON:009:1,2016-05-07T00:18:00Z,27.8398,-97.0727,1.64,1111122 
TCOON,ioos:station:TCOON:009:1,2016-05-07T01:18:00Z,27.8398,-97.0727,1.593,1111122 
TCOON,ioos:station:TCOON:009:1,2016-05-07T02:18:00Z,27.8398,-97.0727,1.574,1111122 
TCOON,ioos:station:TCOON:009:1,2016-05-07T03:18:00Z,27.8398,-97.0727,1.606,1111122 
TCOON,ioos:station:TCOON:009:1,2016-05-07T04:18:00Z,27.8398,-97.0727,1.629,1111122 
TCOON,ioos:station:TCOON:009:1,2016-05-07T05:18:00Z,27.8398,-97.0727,1.691,1111122 
TCOON,ioos:station:TCOON:009:1,2016-05-07T06:18:00Z,27.8398,-97.0727,1.781,1111122 
TCOON,ioos:station:TCOON:009:1,2016-05-07T07:18:00Z,27.8398,-97.0727,1.87,1111122 
TCOON,ioos:station:TCOON:009:1,2016-05-07T08:18:00Z,27.8398,-97.0727,1.903,1111122 
TCOON,ioos:station:TCOON:009:1,2016-05-07T09:18:00Z,27.8398,-97.0727,1.92,1111122 
TCOON,ioos:station:TCOON:009:1,2016-05-07T10:18:00Z,27.8398,-97.0727,1.936,1111122 
TCOON,ioos:station:TCOON:009:1,2016-05-07T11:18:00Z,27.8398,-97.0727,1.96,1111122 
TCOON,ioos:station:TCOON:009:1,2016-05-07T12:18:00Z,27.8398,-97.0727,1.958,1111122 
TCOON,ioos:station:TCOON:009:1,2016-05-07T13:18:00Z,27.8398,-97.0727,1.943,1111122 
TCOON,ioos:station:TCOON:009:1,2016-05-07T14:18:00Z,27.8398,-97.0727,1.932,1111122 
TCOON,ioos:station:TCOON:009:1,2016-05-07T15:18:00Z,27.8398,-97.0727,1.954,1111122 
TCOON,ioos:station:TCOON:009:1,2016-05-07T16:18:00Z,27.8398,-97.0727,1.964,1111122 
TCOON,ioos:station:TCOON:009:1,2016-05-07T17:18:00Z,27.8398,-97.0727,1.943,1111122 
TCOON,ioos:station:TCOON:009:1,2016-05-07T18:18:00Z,27.8398,-97.0727,1.96,1111122 
TCOON,ioos:station:TCOON:009:1,2016-05-07T19:18:00Z,27.8398,-97.0727,1.956,1111122 
TCOON,ioos:station:TCOON:009:1,2016-05-07T20:18:00Z,27.8398,-97.0727,1.955,1111122 
TCOON,ioos:station:TCOON:009:1,2016-05-07T21:18:00Z,27.8398,-97.0727,1.918,1111122 
TCOON,ioos:station:TCOON:009:1,2016-05-07T22:18:00Z,27.8398,-97.0727,1.862,1111122 
TCOON,ioos:station:TCOON:009:1,2016-05-07T23:18:00Z,27.8398,-97.0727,1.79,1111122 
TCOON,ioos:station:TCOON:009:1,2016-05-08T00:18:00Z,27.8398,-97.0727,1.709,1111122 
TCOON,ioos:station:TCOON:009:1,2016-05-08T01:18:00Z,27.8398,-97.0727,1.636,1111122 
TCOON,ioos:station:TCOON:009:1,2016-05-08T02:18:00Z,27.8398,-97.0727,1.594,1111122 
TCOON,ioos:station:TCOON:009:1,2016-05-08T03:18:00Z,27.8398,-97.0727,1.555,1111122 
TCOON,ioos:station:TCOON:009:1,2016-05-08T04:18:00Z,27.8398,-97.0727,1.563,1111122 
TCOON,ioos:station:TCOON:009:1,2016-05-08T05:18:00Z,27.8398,-97.0727,1.615,1111122 
TCOON,ioos:station:TCOON:009:1,2016-05-08T06:18:00Z,27.8398,-97.0727,1.686,1111122 
TCOON,ioos:station:TCOON:009:1,2016-05-08T07:18:00Z,27.8398,-97.0727,1.767,1111122 
TCOON,ioos:station:TCOON:009:1,2016-05-08T08:18:00Z,27.8398,-97.0727,1.864,1111122 
TCOON,ioos:station:TCOON:009:1,2016-05-08T09:18:00Z,27.8398,-97.0727,1.935,1111122 
TCOON,ioos:station:TCOON:009:1,2016-05-08T10:18:00Z,27.8398,-97.0727,1.948,1111122 
TCOON,ioos:station:TCOON:009:1,2016-05-08T11:18:00Z,27.8398,-97.0727,1.937,1111122 
TCOON,ioos:station:TCOON:009:1,2016-05-08T12:18:00Z,27.8398,-97.0727,1.953,1111122 
TCOON,ioos:station:TCOON:009:1,2016-05-08T13:18:00Z,27.8398,-97.0727,1.959,1111122 
TCOON,ioos:station:TCOON:009:1,2016-05-08T14:18:00Z,27.8398,-97.0727,1.949,1111122 
TCOON,ioos:station:TCOON:009:1,2016-05-08T15:18:00Z,27.8398,-97.0727,1.944,1111122 
TCOON,ioos:station:TCOON:009:1,2016-05-08T16:18:00Z,27.8398,-97.0727,1.944,1111122 
TCOON,ioos:station:TCOON:009:1,2016-05-08T17:18:00Z,27.8398,-97.0727,1.923,1111122 
TCOON,ioos:station:TCOON:009:1,2016-05-08T18:18:00Z,27.8398,-97.0727,1.907,1111122 
TCOON,ioos:station:TCOON:009:1,2016-05-08T19:18:00Z,27.8398,-97.0727,1.923,1111122 
TCOON,ioos:station:TCOON:009:1,2016-05-08T20:18:00Z,27.8398,-97.0727,1.906,1111122 
TCOON,ioos:station:TCOON:009:1,2016-05-08T21:18:00Z,27.8398,-97.0727,1.908,1111122 
TCOON,ioos:station:TCOON:009:1,2016-05-08T22:18:00Z,27.8398,-97.0727,1.896,1111122 
TCOON,ioos:station:TCOON:009:1,2016-05-08T23:18:00Z,27.8398,-97.0727,1.822,1111122 
TCOON,ioos:station:TCOON:009:1,2016-05-09T00:18:00Z,27.8398,-97.0727,1.719,1111122 
TCOON,ioos:station:TCOON:009:1,2016-05-09T01:18:00Z,27.8398,-97.0727,1.658,1111122 
TCOON,ioos:station:TCOON:009:1,2016-05-09T02:18:00Z,27.8398,-97.0727,1.608,1111122 
TCOON,ioos:station:TCOON:009:1,2016-05-09T03:18:00Z,27.8398,-97.0727,1.577,1111122 
TCOON,ioos:station:TCOON:009:1,2016-05-09T04:18:00Z,27.8398,-97.0727,1.542,1111122 
TCOON,ioos:station:TCOON:009:1,2016-05-09T05:18:00Z,27.8398,-97.0727,1.547,1111122 
TCOON,ioos:station:TCOON:009:1,2016-05-09T06:18:00Z,27.8398,-97.0727,1.586,1111122 
TCOON,ioos:station:TCOON:009:1,2016-05-09T07:18:00Z,27.8398,-97.0727,1.726,1111122 
TCOON,ioos:station:TCOON:009:1,2016-05-09T08:18:00Z,27.8398,-97.0727,1.825,1111122 
TCOON,ioos:station:TCOON:009:1,2016-05-09T09:18:00Z,27.8398,-97.0727,1.879,1111122 
TCOON,ioos:station:TCOON:009:1,2016-05-09T10:18:00Z,27.8398,-97.0727,1.899,1111122 
TCOON,ioos:station:TCOON:009:1,2016-05-09T11:18:00Z,27.8398,-97.0727,1.934,1111122 
TCOON,ioos:station:TCOON:009:1,2016-05-09T12:18:00Z,27.8398,-97.0727,1.93,1111122 
TCOON,ioos:station:TCOON:009:1,2016-05-09T13:18:00Z,27.8398,-97.0727,1.968,1111122 
TCOON,ioos:station:TCOON:009:1,2016-05-09T14:18:00Z,27.8398,-97.0727,1.972,1111122 
TCOON,ioos:station:TCOON:009:1,2016-05-09T15:18:00Z,27.8398,-97.0727,2.033,1111122 
TCOON,ioos:station:TCOON:009:1,2016-05-09T16:18:00Z,27.8398,-97.0727,2.069,1111122 
TCOON,ioos:station:TCOON:009:1,2016-05-09T17:18:00Z,27.8398,-97.0727,2.015,1111122 
TCOON,ioos:station:TCOON:009:1,2016-05-09T18:18:00Z,27.8398,-97.0727,1.948,1111122 
TCOON,ioos:station:TCOON:009:1,2016-05-09T19:18:00Z,27.8398,-97.0727,1.978,1111122 
TCOON,ioos:station:TCOON:009:1,2016-05-09T20:18:00Z,27.8398,-97.0727,1.975,1111122 
TCOON,ioos:station:TCOON:009:1,2016-05-09T21:18:00Z,27.8398,-97.0727,1.977,1111122 
TCOON,ioos:station:TCOON:009:1,2016-05-09T22:18:00Z,27.8398,-97.0727,1.935,1111122 
TCOON,ioos:station:TCOON:009:1,2016-05-09T23:18:00Z,27.8398,-97.0727,1.841,1111122 
TCOON,ioos:station:TCOON:009:1,2016-05-10T00:18:00Z,27.8398,-97.0727,1.777,1111122 
TCOON,ioos:station:TCOON:009:1,2016-05-10T01:18:00Z,27.8398,-97.0727,1.721,1111122 
TCOON,ioos:station:TCOON:009:1,2016-05-10T02:18:00Z,27.8398,-97.0727,1.689,1111122 
TCOON,ioos:station:TCOON:009:1,2016-05-10T03:18:00Z,27.8398,-97.0727,1.595,1111122 
TCOON,ioos:station:TCOON:009:1,2016-05-10T04:18:00Z,27.8398,-97.0727,1.552,1111122 
TCOON,ioos:station:TCOON:009:1,2016-05-10T05:18:00Z,27.8398,-97.0727,1.525,1111122 
TCOON,ioos:station:TCOON:009:1,2016-05-10T06:18:00Z,27.8398,-97.0727,1.567,1111122 
TCOON,ioos:station:TCOON:009:1,2016-05-10T07:18:00Z,27.8398,-97.0727,1.607,1111122 
TCOON,ioos:station:TCOON:009:1,2016-05-10T08:18:00Z,27.8398,-97.0727,1.725,1111122 
TCOON,ioos:station:TCOON:009:1,2016-05-10T09:18:00Z,27.8398,-97.0727,1.785,1111122 
TCOON,ioos:station:TCOON:009:1,2016-05-10T10:18:00Z,27.8398,-97.0727,1.923,1111122 
TCOON,ioos:station:TCOON:009:1,2016-05-10T11:18:00Z,27.8398,-97.0727,1.924,1111122 
TCOON,ioos:station:TCOON:009:1,2016-05-10T12:18:00Z,27.8398,-97.0727,1.919,1111122 
TCOON,ioos:station:TCOON:009:1,2016-05-10T13:18:00Z,27.8398,-97.0727,1.955,1111122 
TCOON,ioos:station:TCOON:009:1,2016-05-10T14:18:00Z,27.8398,-97.0727,1.961,1111122 
TCOON,ioos:station:TCOON:009:1,2016-05-10T15:18:00Z,27.8398,-97.0727,1.963,1111122 
TCOON,ioos:station:TCOON:009:1,2016-05-10T16:18:00Z,27.8398,-97.0727,1.98,1111122 
TCOON,ioos:station:TCOON:009:1,2016-05-10T17:18:00Z,27.8398,-97.0727,1.99,1111122 
TCOON,ioos:station:TCOON:009:1,2016-05-10T18:18:00Z,27.8398,-97.0727,1.958,1111122 
TCOON,ioos:station:TCOON:009:1,2016-05-10T19:18:00Z,27.8398,-97.0727,1.979,1111122 
TCOON,ioos:station:TCOON:009:1,2016-05-10T20:18:00Z,27.8398,-97.0727,1.984,1111122 
TCOON,ioos:station:TCOON:009:1,2016-05-10T21:18:00Z,27.8398,-97.0727,1.971,1111122 
TCOON,ioos:station:TCOON:009:1,2016-05-10T22:18:00Z,27.8398,-97.0727,1.959,1111122 
TCOON,ioos:station:TCOON:009:1,2016-05-10T23:18:00Z,27.8398,-97.0727,1.931,1111122 
TCOON,ioos:station:TCOON:009:1,2016-05-11T00:18:00Z,27.8398,-97.0727,1.902,1111122 
TCOON,ioos:station:TCOON:009:1,2016-05-11T01:18:00Z,27.8398,-97.0727,1.814,1111122 
TCOON,ioos:station:TCOON:009:1,2016-05-11T02:24:00Z,27.8398,-97.0727,1.726,1111122 
TCOON,ioos:station:TCOON:009:1,2016-05-11T03:24:00Z,27.8398,-97.0727,1.672,1111122 
TCOON,ioos:station:TCOON:009:1,2016-05-11T04:18:00Z,27.8398,-97.0727,1.646,1111122 
TCOON,ioos:station:TCOON:009:1,2016-05-11T05:18:00Z,27.8398,-97.0727,1.623,1111122 
TCOON,ioos:station:TCOON:009:1,2016-05-11T06:18:00Z,27.8398,-97.0727,1.585,1111122 
TCOON,ioos:station:TCOON:009:1,2016-05-11T07:18:00Z,27.8398,-97.0727,1.622,1111122 
TCOON,ioos:station:TCOON:009:1,2016-05-11T08:18:00Z,27.8398,-97.0727,1.618,1111122 
TCOON,ioos:station:TCOON:009:1,2016-05-11T09:18:00Z,27.8398,-97.0727,1.701,1111122 
TCOON,ioos:station:TCOON:009:1,2016-05-11T10:18:00Z,27.8398,-97.0727,1.785,1111122 
TCOON,ioos:station:TCOON:009:1,2016-05-11T11:18:00Z,27.8398,-97.0727,1.856,1111122 
TCOON,ioos:station:TCOON:009:1,2016-05-11T12:18:00Z,27.8398,-97.0727,1.919,1111122 
TCOON,ioos:station:TCOON:009:1,2016-05-11T13:18:00Z,27.8398,-97.0727,1.924,1111122 
TCOON,ioos:station:TCOON:009:1,2016-05-11T14:18:00Z,27.8398,-97.0727,1.883,1111122 
TCOON,ioos:station:TCOON:009:1,2016-05-11T15:18:00Z,27.8398,-97.0727,1.914,1111122 
TCOON,ioos:station:TCOON:009:1,2016-05-11T16:18:00Z,27.8398,-97.0727,1.9,1111122 
TCOON,ioos:station:TCOON:009:1,2016-05-11T17:18:00Z,27.8398,-97.0727,1.947,1111122 
TCOON,ioos:station:TCOON:009:1,2016-05-11T18:18:00Z,27.8398,-97.0727,1.937,1111122 
TCOON,ioos:station:TCOON:009:1,2016-05-11T19:18:00Z,27.8398,-97.0727,1.927,1111122 
TCOON,ioos:station:TCOON:009:1,2016-05-11T20:18:00Z,27.8398,-97.0727,1.926,1111122 
TCOON,ioos:station:TCOON:009:1,2016-05-11T21:18:00Z,27.8398,-97.0727,1.947,1111122 
TCOON,ioos:station:TCOON:009:1,2016-05-11T22:18:00Z,27.8398,-97.0727,1.96,1111122 
TCOON,ioos:station:TCOON:009:1,2016-05-11T23:18:00Z,27.8398,-97.0727,1.936,1111122 
TCOON,ioos:station:TCOON:009:1,2016-05-12T00:18:00Z,27.8398,-97.0727,1.912,1111122 
TCOON,ioos:station:TCOON:009:1,2016-05-12T01:18:00Z,27.8398,-97.0727,1.893,1111122 
TCOON,ioos:station:TCOON:009:1,2016-05-12T02:18:00Z,27.8398,-97.0727,1.851,1111122 
TCOON,ioos:station:TCOON:009:1,2016-05-12T03:18:00Z,27.8398,-97.0727,1.829,1111122 
TCOON,ioos:station:TCOON:009:1,2016-05-12T04:18:00Z,27.8398,-97.0727,1.772,1111122 
TCOON,ioos:station:TCOON:009:1,2016-05-12T05:18:00Z,27.8398,-97.0727,1.737,1111122 
TCOON,ioos:station:TCOON:009:1,2016-05-12T06:18:00Z,27.8398,-97.0727,1.703,1111122 
TCOON,ioos:station:TCOON:009:1,2016-05-12T07:18:00Z,27.8398,-97.0727,1.674,1111122 
TCOON,ioos:station:TCOON:009:1,2016-05-12T08:18:00Z,27.8398,-97.0727,1.687,1111122 
TCOON,ioos:station:TCOON:009:1,2016-05-12T09:18:00Z,27.8398,-97.0727,1.725,1111122 
TCOON,ioos:station:TCOON:009:1,2016-05-12T10:18:00Z,27.8398,-97.0727,1.776,1111122 
TCOON,ioos:station:TCOON:009:1,2016-05-12T11:18:00Z,27.8398,-97.0727,1.821,1111122 
TCOON,ioos:station:TCOON:009:1,2016-05-12T12:18:00Z,27.8398,-97.0727,1.916,1111122 
TCOON,ioos:station:TCOON:009:1,2016-05-12T13:18:00Z,27.8398,-97.0727,1.948,1111122 
TCOON,ioos:station:TCOON:009:1,2016-05-12T14:18:00Z,27.8398,-97.0727,1.943,1111122 
TCOON,ioos:station:TCOON:009:1,2016-05-12T15:18:00Z,27.8398,-97.0727,1.922,1111122 
TCOON,ioos:station:TCOON:009:1,2016-05-12T16:18:00Z,27.8398,-97.0727,1.938,1111122 
TCOON,ioos:station:TCOON:009:1,2016-05-12T17:18:00Z,27.8398,-97.0727,1.92,1111122 
TCOON,ioos:station:TCOON:009:1,2016-05-12T18:18:00Z,27.8398,-97.0727,1.915,1111122 
TCOON,ioos:station:TCOON:009:1,2016-05-12T19:18:00Z,27.8398,-97.0727,1.929,1111122 
TCOON,ioos:station:TCOON:009:1,2016-05-12T20:18:00Z,27.8398,-97.0727,1.909,1111122 